• In France
  • List of Countries
  • For 7 days
  • Water Temperature
  • Satellite Maps
  • Weather Map
  • Weather Widgets
  • user-avatar
    Login

    Hourly Weather Malanje

    Today, 18 September, Tuesday

    Time Temperature Precipitation Wind Pressure Humidity
    00:00 +25°C° 0 mm 2 mps 665 mmHg 59%
    01:00 +23°C° 0 mm 2 mps 665 mmHg 63%
    02:00 +23°C° 0 mm 2 mps 664 mmHg 67%
    03:00 +21°C° 0 mm 2 mps 664 mmHg 71%
    04:00 +20°C° 0 mm 2 mps 664 mmHg 75%
    05:00 +20°C° 0 mm 2 mps 664 mmHg 76%
    06:00 +21°C° 0 mm 2 mps 665 mmHg 77%
    07:00 +21°C° 0 mm 2 mps 665 mmHg 75%
    08:00 +25°C° 0 mm 2 mps 666 mmHg 63%
    09:00 +29°C° 0 mm 1 mps 667 mmHg 51%
    10:00 +32°C° 0 mm 1 mps 667 mmHg 38%
    11:00 +34°C° 0 mm 1 mps 667 mmHg 32%
    12:00 +37°C° 0 mm 2 mps 667 mmHg 27%
    13:00 +36°C° 0 mm 1 mps 667 mmHg 25%
    14:00 +35°C° 0 mm 1 mps 666 mmHg 24%
    15:00 +36°C° 0 mm 2 mps 666 mmHg 24%
    16:00 +35°C° 0 mm 2 mps 665 mmHg 23%
    17:00 +34°C° 0 mm 2 mps 665 mmHg 25%
    18:00 +32°C° 0 mm 1 mps 665 mmHg 27%
    19:00 +31°C° 0 mm 1 mps 665 mmHg 30%
    20:00 +30°C° 0 mm 1 mps 666 mmHg 33%
    21:00 +29°C° 0 mm 2 mps 666 mmHg 37%
    22:00 +28°C° 0 mm 2 mps 666 mmHg 40%
    23:00 +27°C° 0 mm 2 mps 666 mmHg 47%

    Tomorrow, 19 September, Wednesday

    Time Temperature Precipitation Wind Pressure Humidity
    00:00 +26°C° 0 mm 2 mps 665 mmHg 54%
    01:00 +25°C° 0 mm 3 mps 665 mmHg 61%
    02:00 +24°C° 0 mm 2 mps 665 mmHg 64%
    03:00 +23°C° 0 mm 2 mps 665 mmHg 67%
    04:00 +23°C° 0 mm 2 mps 664 mmHg 70%
    05:00 +23°C° 0 mm 2 mps 664 mmHg 70%
    06:00 +23°C° 0 mm 2 mps 664 mmHg 71%
    07:00 +23°C° 0 mm 2 mps 665 mmHg 71%
    08:00 +26°C° 0 mm 2 mps 665 mmHg 59%
    09:00 +30°C° 0 mm 2 mps 666 mmHg 46%
    10:00 +34°C° 0 mm 2 mps 667 mmHg 34%
    11:00 +36°C° 0 mm 2 mps 667 mmHg 30%
    12:00 +36°C° 0 mm 1 mps 666 mmHg 26%
    13:00 +39°C° 0 mm 1 mps 666 mmHg 22%
    14:00 +37°C° 0 mm 1 mps 665 mmHg 22%
    15:00 +36°C° 0 mm 1 mps 665 mmHg 23%
    16:00 +35°C° 0 mm 1 mps 664 mmHg 24%
    17:00 +34°C° 0 mm 1 mps 664 mmHg 27%
    18:00 +32°C° 0 mm 1 mps 664 mmHg 30%
    19:00 +31°C° 0 mm 2 mps 665 mmHg 33%
    20:00 +29°C° 0 mm 2 mps 665 mmHg 38%
    21:00 +28°C° 0 mm 3 mps 665 mmHg 42%
    22:00 +27°C° 0 mm 4 mps 665 mmHg 47%
    23:00 +26°C° 0 mm 3 mps 665 mmHg 52%

    Day after tomorrow, 20 September, Thursday

    Time Temperature Precipitation Wind Pressure Humidity
    00:00 +25°C° 0 mm 3 mps 664 mmHg 57%
    01:00 +24°C° 0 mm 3 mps 664 mmHg 62%
    02:00 +22°C° 0 mm 3 mps 664 mmHg 65%
    03:00 +21°C° 0 mm 2 mps 663 mmHg 69%
    04:00 +21°C° 0 mm 2 mps 663 mmHg 72%
    05:00 +21°C° 0 mm 2 mps 664 mmHg 72%
    06:00 +21°C° 0 mm 2 mps 664 mmHg 72%
    07:00 +21°C° 0 mm 2 mps 664 mmHg 71%
    08:00 +26°C° 0 mm 2 mps 665 mmHg 59%
    09:00 +29°C° 0 mm 2 mps 666 mmHg 46%
    10:00 +32°C° 0 mm 2 mps 667 mmHg 34%
    11:00 +35°C° 0 mm 2 mps 667 mmHg 30%
    12:00 +37°C° 0 mm 2 mps 666 mmHg 26%
    13:00 +39°C° 0 mm 2 mps 665 mmHg 22%
    14:00 +38°C° 0 mm 2 mps 665 mmHg 23%
    15:00 +37°C° 0 mm 2 mps 664 mmHg 23%
    16:00 +36°C° 0 mm 2 mps 663 mmHg 24%
    17:00 +34°C° 0.2 mm 2 mps 664 mmHg 28%
    18:00 +31°C° 0.2 mm 2 mps 664 mmHg 33%
    19:00 +30°C° 0.2 mm 3 mps 664 mmHg 37%
    20:00 +28°C° 0.2 mm 2 mps 664 mmHg 41%
    21:00 +27°C° 0.2 mm 2 mps 665 mmHg 46%
    22:00 +26°C° 0.2 mm 2 mps 665 mmHg 50%
    23:00 +25°C° 0.2 mm 2 mps 665 mmHg 56%

    21 September, Friday

    Time Temperature Precipitation Wind Pressure Humidity
    00:00 +24°C° 0.2 mm 3 mps 665 mmHg 62%
    01:00 +22°C° 0.2 mm 3 mps 664 mmHg 68%
    02:00 +21°C° 0.1 mm 3 mps 664 mmHg 72%
    03:00 +20°C° 0.1 mm 3 mps 664 mmHg 76%
    04:00 +20°C° 0.1 mm 4 mps 663 mmHg 80%
    05:00 +20°C° 0 mm 3 mps 664 mmHg 79%
    06:00 +20°C° 0 mm 3 mps 664 mmHg 78%
    07:00 +20°C° 0 mm 3 mps 665 mmHg 77%
    08:00 +24°C° 0 mm 2 mps 665 mmHg 63%
    09:00 +28°C° 0 mm 2 mps 666 mmHg 50%
    10:00 +31°C° 0 mm 2 mps 667 mmHg 37%
    11:00 +34°C° 0 mm 2 mps 667 mmHg 33%
    12:00 +36°C° 0 mm 2 mps 666 mmHg 28%
    13:00 +38°C° 0 mm 2 mps 666 mmHg 23%
    14:00 +37°C° 0 mm 2 mps 665 mmHg 24%
    15:00 +36°C° 0 mm 2 mps 664 mmHg 24%
    16:00 +35°C° 0 mm 2 mps 664 mmHg 25%
    17:00 +34°C° 0.1 mm 2 mps 664 mmHg 28%
    18:00 +31°C° 0.1 mm 1 mps 664 mmHg 31%
    19:00 +30°C° 0.1 mm 1 mps 664 mmHg 34%
    20:00 +29°C° 0.1 mm 1 mps 665 mmHg 38%
    21:00 +28°C° 0.1 mm 2 mps 665 mmHg 42%
    22:00 +26°C° 0.1 mm 2 mps 665 mmHg 45%
    23:00 +26°C° 0 mm 2 mps 665 mmHg 50%

    22 September, Saturday

    Time Temperature Precipitation Wind Pressure Humidity
    00:00 +25°C° 0 mm 2 mps 664 mmHg 55%
    01:00 +24°C° 0 mm 1 mps 664 mmHg 59%
    02:00 +23°C° 0.2 mm 2 mps 664 mmHg 64%
    03:00 +21°C° 0.2 mm 2 mps 663 mmHg 70%
    04:00 +21°C° 0.2 mm 3 mps 663 mmHg 75%
    05:00 +21°C° 0 mm 3 mps 664 mmHg 74%
    06:00 +21°C° 0 mm 2 mps 664 mmHg 74%
    07:00 +21°C° 0 mm 2 mps 665 mmHg 74%
    08:00 +25°C° 0 mm 2 mps 665 mmHg 62%
    09:00 +28°C° 0 mm 2 mps 666 mmHg 50%
    10:00 +32°C° 0 mm 2 mps 667 mmHg 38%
    11:00 +35°C° 0 mm 2 mps 666 mmHg 32%
    12:00 +37°C° 0 mm 2 mps 666 mmHg 27%
    13:00 +39°C° 0 mm 2 mps 665 mmHg 22%
    14:00 +38°C° 0 mm 2 mps 665 mmHg 23%
    15:00 +36°C° 0 mm 2 mps 664 mmHg 25%
    16:00 +35°C° 0 mm 2 mps 664 mmHg 26%
    17:00 +34°C° 0.2 mm 2 mps 664 mmHg 30%
    18:00 +31°C° 0.2 mm 2 mps 664 mmHg 34%
    19:00 +30°C° 0.2 mm 2 mps 665 mmHg 38%
    20:00 +28°C° 0.2 mm 2 mps 665 mmHg 44%
    21:00 +27°C° 0.2 mm 2 mps 665 mmHg 49%
    22:00 +26°C° 0.2 mm 3 mps 665 mmHg 54%
    23:00 +25°C° 0.2 mm 3 mps 665 mmHg 59%

    23 September, Sunday

    Time Temperature Precipitation Wind Pressure Humidity
    00:00 +24°C° 0.2 mm 3 mps 664 mmHg 64%
    01:00 +22°C° 0.2 mm 4 mps 664 mmHg 69%
    02:00 +21°C° 0 mm 3 mps 664 mmHg 71%
    03:00 +20°C° 0 mm 3 mps 663 mmHg 74%
    04:00 +20°C° 0 mm 3 mps 663 mmHg 77%
    05:00 +20°C° 0 mm 3 mps 664 mmHg 75%
    06:00 +20°C° 0 mm 2 mps 664 mmHg 74%
    07:00 +20°C° 0 mm 2 mps 665 mmHg 73%
    08:00 +25°C° 0 mm 2 mps 666 mmHg 61%
    09:00 +28°C° 0 mm 2 mps 666 mmHg 49%
    10:00 +31°C° 0 mm 2 mps 667 mmHg 37%
    11:00 +35°C° 0 mm 2 mps 667 mmHg 32%
    12:00 +37°C° 0 mm 2 mps 666 mmHg 27%
    13:00 +39°C° 0 mm 1 mps 665 mmHg 22%
    14:00 +37°C° 0 mm 1 mps 665 mmHg 23%
    15:00 +36°C° 0 mm 2 mps 664 mmHg 25%
    16:00 +35°C° 0 mm 2 mps 664 mmHg 27%
    17:00 +34°C° 0 mm 2 mps 664 mmHg 30%
    18:00 +31°C° 0 mm 3 mps 665 mmHg 32%
    19:00 +30°C° 0 mm 3 mps 665 mmHg 35%
    20:00 +29°C° 0 mm 3 mps 665 mmHg 39%
    21:00 +27°C° 0 mm 3 mps 665 mmHg 43%
    22:00 +26°C° 0 mm 3 mps 665 mmHg 47%
    23:00 +25°C° 0 mm 3 mps 665 mmHg 51%
    Show more